Location: Newark
(47.5833°N, 8.1500°E)
Time: 18:09:26
(UTC+00:00)

Transit 2A - Pass Details

Date: 27 October 2020
Orbit: 595 x 964 km, 66.7° (Epoch: 29 November)

Event Time Altitude Azimuth Distance (km) Brightness Sun altitude
Rises 02:08:46 0° 240° (WSW) 3,635 - -39.4°
Reaches altitude 10° 02:11:30 10° 247° (WSW) 2,698 - -39.0°
Maximum altitude 02:17:27 40° 316° (NW) 1,378 - -38.1°
Exits shadow 02:20:43 24° 10° (N) 1,863 8.2 -37.6°
Drops below altitude 10° 02:23:15 10° 25° (NNE) 2,627 9.2 -37.2°
Sets 02:25:54 0° 33° (NNE) 3,529 10.1 -36.8°
